owner,sensor,date,latitude,longitude,vertical_datum,wind_speed,wind_to_direction,wind_speed_of_gust,qcFlag 
ADCP,ioos:station:wmo:42364:1,2010-02-01T00:00:00Z,29.0600,-88.0900,122.0,4.0,80.0,5.0,'11111222,11111222,11111222' 
ADCP,ioos:station:wmo:42364:1,2010-02-01T00:15:00Z,29.0600,-88.0900,122.0,9.0,40.0,9.0,'11111222,11111222,11111222' 
ADCP,ioos:station:wmo:42364:1,2010-02-01T00:30:00Z,29.0600,-88.0900,122.0,6.0,50.0,7.0,'11111222,11111222,11111222' 
ADCP,ioos:station:wmo:42364:1,2010-02-01T00:45:00Z,29.0600,-88.0900,122.0,9.0,50.0,9.0,'11111222,11111222,11111222' 
ADCP,ioos:station:wmo:42364:1,2010-02-01T01:00:00Z,29.0600,-88.0900,122.0,3.0,60.0,3.0,'11111222,11111222,11111222' 
ADCP,ioos:station:wmo:42364:1,2010-02-01T01:15:00Z,29.0600,-88.0900,122.0,7.0,50.0,7.0,'11111222,11111222,11111222' 
ADCP,ioos:station:wmo:42364:1,2010-02-01T01:30:00Z,29.0600,-88.0900,122.0,6.0,40.0,6.0,'11111222,11111222,11111222' 
ADCP,ioos:station:wmo:42364:1,2010-02-01T01:45:00Z,29.0600,-88.0900,122.0,8.0,50.0,8.0,'11111222,11111222,11111222' 
ADCP,ioos:station:wmo:42364:1,2010-02-01T02:00:00Z,29.0600,-88.0900,122.0,5.0,50.0,7.0,'11111222,11111222,11111222' 
ADCP,ioos:station:wmo:42364:1,2010-02-01T02:15:00Z,29.0600,-88.0900,122.0,8.0,50.0,8.0,'11111222,11111222,11111222' 
ADCP,ioos:station:wmo:42364:1,2010-02-01T02:30:00Z,29.0600,-88.0900,122.0,7.0,50.0,7.0,'11111222,11111222,11111222' 
ADCP,ioos:station:wmo:42364:1,2010-02-01T02:45:00Z,29.0600,-88.0900,122.0,9.0,60.0,9.0,'11111222,11111222,11111222' 
ADCP,ioos:station:wmo:42364:1,2010-02-01T03:00:00Z,29.0600,-88.0900,122.0,7.0,60.0,9.0,'11111222,11111222,11111222' 
ADCP,ioos:station:wmo:42364:1,2010-02-01T03:15:00Z,29.0600,-88.0900,122.0,9.0,60.0,9.0,'11111222,11111222,11111222' 
ADCP,ioos:station:wmo:42364:1,2010-02-01T03:30:00Z,29.0600,-88.0900,122.0,6.0,70.0,6.0,'11111222,11111222,11111222' 
ADCP,ioos:station:wmo:42364:1,2010-02-01T03:45:00Z,29.0600,-88.0900,122.0,5.0,40.0,7.0,'11111222,11111222,11111222' 
ADCP,ioos:station:wmo:42364:1,2010-02-01T04:00:00Z,29.0600,-88.0900,122.0,9.0,60.0,9.0,'11111222,11111222,11111222' 
ADCP,ioos:station:wmo:42364:1,2010-02-01T04:15:00Z,29.0600,-88.0900,122.0,9.0,70.0,9.0,'11111222,11111222,11111222' 
ADCP,ioos:station:wmo:42364:1,2010-02-01T04:30:00Z,29.0600,-88.0900,122.0,7.0,80.0,9.0,'11111222,11111222,11111222' 
ADCP,ioos:station:wmo:42364:1,2010-02-01T04:45:00Z,29.0600,-88.0900,122.0,6.0,70.0,7.0,'11111222,11111222,11111222' 
ADCP,ioos:station:wmo:42364:1,2010-02-01T05:00:00Z,29.0600,-88.0900,122.0,7.0,60.0,7.0,'11111222,11111222,11111222' 
ADCP,ioos:station:wmo:42364:1,2010-02-01T05:15:00Z,29.0600,-88.0900,122.0,7.0,60.0,7.0,'11111222,11111222,11111222' 
ADCP,ioos:station:wmo:42364:1,2010-02-01T05:30:00Z,29.0600,-88.0900,122.0,8.0,70.0,8.0,'11111222,11111222,11111222' 
ADCP,ioos:station:wmo:42364:1,2010-02-01T05:45:00Z,29.0600,-88.0900,122.0,6.0,80.0,7.0,'11111222,11111222,11111222' 
ADCP,ioos:station:wmo:42364:1,2010-02-01T06:00:00Z,29.0600,-88.0900,122.0,8.0,70.0,8.0,'11111222,11111222,11111222' 
ADCP,ioos:station:wmo:42364:1,2010-02-01T06:15:00Z,29.0600,-88.0900,122.0,5.0,60.0,5.0,'11111222,11111222,11111222' 
ADCP,ioos:station:wmo:42364:1,2010-02-01T06:30:00Z,29.0600,-88.0900,122.0,9.0,70.0,9.0,'11111222,11111222,11111222' 
ADCP,ioos:station:wmo:42364:1,2010-02-01T06:45:00Z,29.0600,-88.0900,122.0,8.0,70.0,8.0,'11111222,11111222,11111222' 
ADCP,ioos:station:wmo:42364:1,2010-02-01T07:00:00Z,29.0600,-88.0900,122.0,7.0,60.0,7.0,'11111222,11111222,11111222' 
ADCP,ioos:station:wmo:42364:1,2010-02-01T07:15:00Z,29.0600,-88.0900,122.0,7.0,60.0,8.0,'11111222,11111222,11111222' 
ADCP,ioos:station:wmo:42364:1,2010-02-01T07:30:00Z,29.0600,-88.0900,122.0,7.0,40.0,9.0,'11111222,11111222,11111222' 
ADCP,ioos:station:wmo:42364:1,2010-02-01T07:45:00Z,29.0600,-88.0900,122.0,3.0,50.0,4.0,'11111222,11111222,11111222' 
ADCP,ioos:station:wmo:42364:1,2010-02-01T08:00:00Z,29.0600,-88.0900,122.0,6.0,70.0,6.0,'11111222,11111222,11111222' 
ADCP,ioos:station:wmo:42364:1,2010-02-01T08:15:00Z,29.0600,-88.0900,122.0,7.0,50.0,8.0,'11111222,11111222,11111222' 
ADCP,ioos:station:wmo:42364:1,2010-02-01T08:30:00Z,29.0600,-88.0900,122.0,8.0,60.0,8.0,'11111222,11111222,11111222' 
ADCP,ioos:station:wmo:42364:1,2010-02-01T08:45:00Z,29.0600,-88.0900,122.0,7.0,60.0,7.0,'11111222,11111222,11111222' 
ADCP,ioos:station:wmo:42364:1,2010-02-01T09:00:00Z,29.0600,-88.0900,122.0,7.0,50.0,8.0,'11111222,11111222,11111222' 
ADCP,ioos:station:wmo:42364:1,2010-02-01T09:15:00Z,29.0600,-88.0900,122.0,7.0,40.0,7.0,'11111222,11111222,11111222' 
ADCP,ioos:station:wmo:42364:1,2010-02-01T09:30:00Z,29.0600,-88.0900,122.0,5.0,40.0,9.0,'11111222,11111222,11111222' 
ADCP,ioos:station:wmo:42364:1,2010-02-01T09:45:00Z,29.0600,-88.0900,122.0,7.0,60.0,9.0,'11111222,11111222,11111222' 
ADCP,ioos:station:wmo:42364:1,2010-02-01T10:00:00Z,29.0600,-88.0900,122.0,7.0,50.0,7.0,'11111222,11111222,11111222' 
ADCP,ioos:station:wmo:42364:1,2010-02-01T10:15:00Z,29.0600,-88.0900,122.0,7.0,50.0,8.0,'11111222,11111222,11111222' 
ADCP,ioos:station:wmo:42364:1,2010-02-01T10:30:00Z,29.0600,-88.0900,122.0,7.0,50.0,7.0,'11111222,11111222,11111222' 
ADCP,ioos:station:wmo:42364:1,2010-02-01T10:45:00Z,29.0600,-88.0900,122.0,8.0,40.0,8.0,'11111222,11111222,11111222' 
ADCP,ioos:station:wmo:42364:1,2010-02-01T11:00:00Z,29.0600,-88.0900,122.0,5.0,50.0,9.0,'11111222,11111222,11111222' 
ADCP,ioos:station:wmo:42364:1,2010-02-01T11:15:00Z,29.0600,-88.0900,122.0,8.0,40.0,8.0,'11111222,11111222,11111222' 
ADCP,ioos:station:wmo:42364:1,2010-02-01T11:30:00Z,29.0600,-88.0900,122.0,5.0,60.0,7.0,'11111222,11111222,11111222' 
ADCP,ioos:station:wmo:42364:1,2010-02-01T11:45:00Z,29.0600,-88.0900,122.0,5.0,50.0,5.0,'11111222,11111222,11111222' 
ADCP,ioos:station:wmo:42364:1,2010-02-01T12:00:00Z,29.0600,-88.0900,122.0,6.0,60.0,6.0,'11111222,11111222,11111222' 
ADCP,ioos:station:wmo:42364:1,2010-02-01T12:15:00Z,29.0600,-88.0900,122.0,6.0,50.0,7.0,'11111222,11111222,11111222' 
ADCP,ioos:station:wmo:42364:1,2010-02-01T12:30:00Z,29.0600,-88.0900,122.0,4.0,50.0,8.0,'11111222,11111222,11111222' 
ADCP,ioos:station:wmo:42364:1,2010-02-01T12:45:00Z,29.0600,-88.0900,122.0,6.0,50.0,6.0,'11111222,11111222,11111222' 
ADCP,ioos:station:wmo:42364:1,2010-02-01T13:00:00Z,29.0600,-88.0900,122.0,2.0,50.0,5.0,'11111222,11111222,11111222' 
ADCP,ioos:station:wmo:42364:1,2010-02-01T13:15:00Z,29.0600,-88.0900,122.0,6.0,50.0,7.0,'11111222,11111222,11111222' 
ADCP,ioos:station:wmo:42364:1,2010-02-01T13:30:00Z,29.0600,-88.0900,122.0,6.0,60.0,8.0,'11111222,11111222,11111222' 
ADCP,ioos:station:wmo:42364:1,2010-02-01T13:45:00Z,29.0600,-88.0900,122.0,6.0,50.0,6.0,'11111222,11111222,11111222' 
ADCP,ioos:station:wmo:42364:1,2010-02-01T14:00:00Z,29.0600,-88.0900,122.0,6.0,50.0,7.0,'11111222,11111222,11111222' 
ADCP,ioos:station:wmo:42364:1,2010-02-01T14:15:00Z,29.0600,-88.0900,122.0,6.0,50.0,8.0,'11111222,11111222,11111222' 
ADCP,ioos:station:wmo:42364:1,2010-02-01T14:30:00Z,29.0600,-88.0900,122.0,8.0,40.0,10.0,'11111222,11111222,11111222' 
ADCP,ioos:station:wmo:42364:1,2010-02-01T14:45:00Z,29.0600,-88.0900,122.0,7.0,40.0,7.0,'11111222,11111222,11111222' 
ADCP,ioos:station:wmo:42364:1,2010-02-01T15:00:00Z,29.0600,-88.0900,122.0,7.0,50.0,7.0,'11111222,11111222,11111222' 
ADCP,ioos:station:wmo:42364:1,2010-02-01T15:15:00Z,29.0600,-88.0900,122.0,6.0,50.0,6.0,'11111222,11111222,11111222' 
ADCP,ioos:station:wmo:42364:1,2010-02-01T15:30:00Z,29.0600,-88.0900,122.0,3.0,50.0,7.0,'11111222,11111222,11111222' 
ADCP,ioos:station:wmo:42364:1,2010-02-01T15:45:00Z,29.0600,-88.0900,122.0,8.0,70.0,8.0,'11111222,11111222,11111222' 
ADCP,ioos:station:wmo:42364:1,2010-02-01T16:00:00Z,29.0600,-88.0900,122.0,10.0,70.0,10.0,'11111222,11111222,11111222' 
ADCP,ioos:station:wmo:42364:1,2010-02-01T16:15:00Z,29.0600,-88.0900,122.0,9.0,50.0,11.0,'11111222,11111222,11111222' 
ADCP,ioos:station:wmo:42364:1,2010-02-01T16:30:00Z,29.0600,-88.0900,122.0,8.0,60.0,8.0,'11111222,11111222,11111222' 
ADCP,ioos:station:wmo:42364:1,2010-02-01T16:45:00Z,29.0600,-88.0900,122.0,9.0,50.0,10.0,'11111222,11111222,11111222' 
ADCP,ioos:station:wmo:42364:1,2010-02-01T17:00:00Z,29.0600,-88.0900,122.0,6.0,80.0,7.0,'11111222,11111222,11111222' 
ADCP,ioos:station:wmo:42364:1,2010-02-01T17:15:00Z,29.0600,-88.0900,122.0,8.0,60.0,9.0,'11111222,11111222,11111222' 
ADCP,ioos:station:wmo:42364:1,2010-02-01T17:30:00Z,29.0600,-88.0900,122.0,8.0,50.0,8.0,'11111222,11111222,11111222' 
ADCP,ioos:station:wmo:42364:1,2010-02-01T17:45:00Z,29.0600,-88.0900,122.0,6.0,60.0,6.0,'11111222,11111222,11111222' 
ADCP,ioos:station:wmo:42364:1,2010-02-01T18:00:00Z,29.0600,-88.0900,122.0,10.0,70.0,10.0,'11111222,11111222,11111222' 
ADCP,ioos:station:wmo:42364:1,2010-02-01T18:15:00Z,29.0600,-88.0900,122.0,9.0,60.0,9.0,'11111222,11111222,11111222' 
ADCP,ioos:station:wmo:42364:1,2010-02-01T18:30:00Z,29.0600,-88.0900,122.0,5.0,40.0,10.0,'11111222,11111222,11111222' 
ADCP,ioos:station:wmo:42364:1,2010-02-01T18:45:00Z,29.0600,-88.0900,122.0,9.0,40.0,9.0,'11111222,11111222,11111222' 
ADCP,ioos:station:wmo:42364:1,2010-02-01T19:00:00Z,29.0600,-88.0900,122.0,7.0,50.0,8.0,'11111222,11111222,11111222' 
ADCP,ioos:station:wmo:42364:1,2010-02-01T19:15:00Z,29.0600,-88.0900,122.0,8.0,60.0,9.0,'11111222,11111222,11111222' 
ADCP,ioos:station:wmo:42364:1,2010-02-01T19:30:00Z,29.0600,-88.0900,122.0,8.0,70.0,8.0,'11111222,11111222,11111222' 
ADCP,ioos:station:wmo:42364:1,2010-02-01T19:45:00Z,29.0600,-88.0900,122.0,7.0,60.0,8.0,'11111222,11111222,11111222' 
ADCP,ioos:station:wmo:42364:1,2010-02-01T20:00:00Z,29.0600,-88.0900,122.0,5.0,70.0,8.0,'11111222,11111222,11111222' 
ADCP,ioos:station:wmo:42364:1,2010-02-01T20:15:00Z,29.0600,-88.0900,122.0,8.0,60.0,8.0,'11111222,11111222,11111222' 
ADCP,ioos:station:wmo:42364:1,2010-02-01T20:30:00Z,29.0600,-88.0900,122.0,10.0,70.0,10.0,'11111222,11111222,11111222' 
ADCP,ioos:station:wmo:42364:1,2010-02-01T20:45:00Z,29.0600,-88.0900,122.0,9.0,70.0,10.0,'11111222,11111222,11111222' 
ADCP,ioos:station:wmo:42364:1,2010-02-01T21:00:00Z,29.0600,-88.0900,122.0,8.0,70.0,9.0,'11111222,11111222,11111222' 
ADCP,ioos:station:wmo:42364:1,2010-02-01T21:15:00Z,29.0600,-88.0900,122.0,9.0,70.0,9.0,'11111222,11111222,11111222' 
ADCP,ioos:station:wmo:42364:1,2010-02-01T21:30:00Z,29.0600,-88.0900,122.0,10.0,50.0,10.0,'11111222,11111222,11111222' 
ADCP,ioos:station:wmo:42364:1,2010-02-01T21:45:00Z,29.0600,-88.0900,122.0,9.0,50.0,9.0,'11111222,11111222,11111222' 
ADCP,ioos:station:wmo:42364:1,2010-02-01T22:00:00Z,29.0600,-88.0900,122.0,9.0,60.0,9.0,'11111222,11111222,11111222' 
ADCP,ioos:station:wmo:42364:1,2010-02-01T22:15:00Z,29.0600,-88.0900,122.0,9.0,70.0,9.0,'11111222,11111222,11111222' 
ADCP,ioos:station:wmo:42364:1,2010-02-01T22:30:00Z,29.0600,-88.0900,122.0,10.0,60.0,10.0,'11111222,11111222,11111222' 
ADCP,ioos:station:wmo:42364:1,2010-02-01T22:45:00Z,29.0600,-88.0900,122.0,8.0,60.0,8.0,'11111222,11111222,11111222' 
ADCP,ioos:station:wmo:42364:1,2010-02-01T23:00:00Z,29.0600,-88.0900,122.0,7.0,60.0,8.0,'11111222,11111222,11111222' 
ADCP,ioos:station:wmo:42364:1,2010-02-01T23:15:00Z,29.0600,-88.0900,122.0,7.0,60.0,11.0,'11111222,11111222,11111222' 
ADCP,ioos:station:wmo:42364:1,2010-02-01T23:30:00Z,29.0600,-88.0900,122.0,8.0,60.0,9.0,'11111222,11111222,11111222' 
ADCP,ioos:station:wmo:42364:1,2010-02-01T23:45:00Z,29.0600,-88.0900,122.0,9.0,70.0,9.0,'11111222,11111222,11111222' 
ADCP,ioos:station:wmo:42364:1,2010-02-02T00:00:00Z,29.0600,-88.0900,122.0,10.0,70.0,10.0,'11111222,11111222,11111222' 
ADCP,ioos:station:wmo:42364:1,2010-02-02T00:30:00Z,29.0600,-88.0900,122.0,9.0,70.0,9.0,'11111222,11111222,11111222' 
ADCP,ioos:station:wmo:42364:1,2010-02-02T00:45:00Z,29.0600,-88.0900,122.0,7.0,100.0,8.0,'11111222,11111222,11111222' 
ADCP,ioos:station:wmo:42364:1,2010-02-02T01:00:00Z,29.0600,-88.0900,122.0,9.0,70.0,9.0,'11111222,11111222,11111222' 
ADCP,ioos:station:wmo:42364:1,2010-02-02T01:15:00Z,29.0600,-88.0900,122.0,8.0,60.0,8.0,'11111222,11111222,11111222' 
ADCP,ioos:station:wmo:42364:1,2010-02-02T01:30:00Z,29.0600,-88.0900,122.0,8.0,70.0,9.0,'11111222,11111222,11111222' 
ADCP,ioos:station:wmo:42364:1,2010-02-02T01:45:00Z,29.0600,-88.0900,122.0,7.0,70.0,7.0,'11111222,11111222,11111222' 
ADCP,ioos:station:wmo:42364:1,2010-02-02T02:00:00Z,29.0600,-88.0900,122.0,8.0,60.0,8.0,'11111222,11111222,11111222' 
ADCP,ioos:station:wmo:42364:1,2010-02-02T02:15:00Z,29.0600,-88.0900,122.0,5.0,60.0,8.0,'11111222,11111222,11111222' 
ADCP,ioos:station:wmo:42364:1,2010-02-02T02:30:00Z,29.0600,-88.0900,122.0,7.0,60.0,7.0,'11111222,11111222,11111222' 
ADCP,ioos:station:wmo:42364:1,2010-02-02T02:45:00Z,29.0600,-88.0900,122.0,6.0,50.0,6.0,'11111222,11111222,11111222' 
ADCP,ioos:station:wmo:42364:1,2010-02-02T03:00:00Z,29.0600,-88.0900,122.0,5.0,50.0,7.0,'11111222,11111222,11111222' 
ADCP,ioos:station:wmo:42364:1,2010-02-02T03:15:00Z,29.0600,-88.0900,122.0,7.0,60.0,7.0,'11111222,11111222,11111222' 
ADCP,ioos:station:wmo:42364:1,2010-02-02T03:30:00Z,29.0600,-88.0900,122.0,6.0,60.0,6.0,'11111222,11111222,11111222' 
ADCP,ioos:station:wmo:42364:1,2010-02-02T04:00:00Z,29.0600,-88.0900,122.0,8.0,70.0,8.0,'11111222,11111222,11111222' 
ADCP,ioos:station:wmo:42364:1,2010-02-02T04:30:00Z,29.0600,-88.0900,122.0,6.0,70.0,8.0,'11111222,11111222,11111222' 
ADCP,ioos:station:wmo:42364:1,2010-02-02T04:45:00Z,29.0600,-88.0900,122.0,4.0,50.0,4.0,'11111222,11111222,11111222' 
ADCP,ioos:station:wmo:42364:1,2010-02-02T05:00:00Z,29.0600,-88.0900,122.0,6.0,60.0,7.0,'11111222,11111222,11111222' 
ADCP,ioos:station:wmo:42364:1,2010-02-02T05:15:00Z,29.0600,-88.0900,122.0,5.0,50.0,6.0,'11111222,11111222,11111222' 
ADCP,ioos:station:wmo:42364:1,2010-02-02T05:30:00Z,29.0600,-88.0900,122.0,7.0,50.0,7.0,'11111222,11111222,11111222' 
ADCP,ioos:station:wmo:42364:1,2010-02-02T05:45:00Z,29.0600,-88.0900,122.0,4.0,70.0,4.0,'11111222,11111222,11111222' 
ADCP,ioos:station:wmo:42364:1,2010-02-02T06:00:00Z,29.0600,-88.0900,122.0,7.0,60.0,7.0,'11111222,11111222,11111222' 
ADCP,ioos:station:wmo:42364:1,2010-02-02T06:15:00Z,29.0600,-88.0900,122.0,4.0,50.0,4.0,'11111222,11111222,11111222' 
ADCP,ioos:station:wmo:42364:1,2010-02-02T06:30:00Z,29.0600,-88.0900,122.0,5.0,50.0,6.0,'11111222,11111222,11111222' 
ADCP,ioos:station:wmo:42364:1,2010-02-02T06:45:00Z,29.0600,-88.0900,122.0,4.0,40.0,6.0,'11111222,11111222,11111222' 
ADCP,ioos:station:wmo:42364:1,2010-02-02T07:00:00Z,29.0600,-88.0900,122.0,4.0,50.0,5.0,'11111222,11111222,11111222' 
ADCP,ioos:station:wmo:42364:1,2010-02-02T07:30:00Z,29.0600,-88.0900,122.0,4.0,60.0,5.0,'11111222,11111222,11111222' 
ADCP,ioos:station:wmo:42364:1,2010-02-02T07:45:00Z,29.0600,-88.0900,122.0,6.0,40.0,6.0,'11111222,11111222,11111222' 
ADCP,ioos:station:wmo:42364:1,2010-02-02T08:00:00Z,29.0600,-88.0900,122.0,5.0,40.0,6.0,'11111222,11111222,11111222' 
ADCP,ioos:station:wmo:42364:1,2010-02-02T08:15:00Z,29.0600,-88.0900,122.0,5.0,50.0,5.0,'11111222,11111222,11111222' 
ADCP,ioos:station:wmo:42364:1,2010-02-02T08:30:00Z,29.0600,-88.0900,122.0,6.0,50.0,7.0,'11111222,11111222,11111222' 
ADCP,ioos:station:wmo:42364:1,2010-02-02T08:45:00Z,29.0600,-88.0900,122.0,3.0,30.0,4.0,'11111222,11111222,11111222' 
ADCP,ioos:station:wmo:42364:1,2010-02-02T09:00:00Z,29.0600,-88.0900,122.0,1.0,20.0,2.0,'11111222,11111222,11111222' 
ADCP,ioos:station:wmo:42364:1,2010-02-02T09:15:00Z,29.0600,-88.0900,122.0,5.0,30.0,5.0,'11111222,11111222,11111222' 
ADCP,ioos:station:wmo:42364:1,2010-02-02T09:30:00Z,29.0600,-88.0900,122.0,4.0,40.0,5.0,'11111222,11111222,11111222' 
ADCP,ioos:station:wmo:42364:1,2010-02-02T09:45:00Z,29.0600,-88.0900,122.0,2.0,40.0,3.0,'11111222,11111222,11111222' 
ADCP,ioos:station:wmo:42364:1,2010-02-02T10:00:00Z,29.0600,-88.0900,122.0,2.0,20.0,3.0,'11111222,11111222,11111222' 
ADCP,ioos:station:wmo:42364:1,2010-02-02T10:15:00Z,29.0600,-88.0900,122.0,3.0,20.0,3.0,'11111222,11111222,11111222' 
ADCP,ioos:station:wmo:42364:1,2010-02-02T10:30:00Z,29.0600,-88.0900,122.0,3.0,50.0,4.0,'11111222,11111222,11111222' 
ADCP,ioos:station:wmo:42364:1,2010-02-02T10:45:00Z,29.0600,-88.0900,122.0,3.0,30.0,5.0,'11111222,11111222,11111222' 
ADCP,ioos:station:wmo:42364:1,2010-02-02T11:00:00Z,29.0600,-88.0900,122.0,3.0,10.0,3.0,'11111222,11111222,11111222' 
ADCP,ioos:station:wmo:42364:1,2010-02-02T11:15:00Z,29.0600,-88.0900,122.0,2.0,20.0,3.0,'11111222,11111222,11111222' 
ADCP,ioos:station:wmo:42364:1,2010-02-02T11:30:00Z,29.0600,-88.0900,122.0,4.0,40.0,5.0,'11111222,11111222,11111222' 
ADCP,ioos:station:wmo:42364:1,2010-02-02T11:45:00Z,29.0600,-88.0900,122.0,4.0,30.0,4.0,'11111222,11111222,11111222' 
ADCP,ioos:station:wmo:42364:1,2010-02-02T12:00:00Z,29.0600,-88.0900,122.0,5.0,360.0,6.0,'11111222,11144222,11111222' 
ADCP,ioos:station:wmo:42364:1,2010-02-02T12:15:00Z,29.0600,-88.0900,122.0,4.0,360.0,6.0,'11111222,11144222,11111222' 
ADCP,ioos:station:wmo:42364:1,2010-02-02T12:30:00Z,29.0600,-88.0900,122.0,4.0,10.0,6.0,'11111222,11111222,11111222' 
ADCP,ioos:station:wmo:42364:1,2010-02-02T12:45:00Z,29.0600,-88.0900,122.0,3.0,360.0,4.0,'11111222,11144222,11111222' 
ADCP,ioos:station:wmo:42364:1,2010-02-02T13:00:00Z,29.0600,-88.0900,122.0,8.0,360.0,8.0,'11111222,11144222,11111222' 
ADCP,ioos:station:wmo:42364:1,2010-02-02T13:15:00Z,29.0600,-88.0900,122.0,4.0,360.0,4.0,'11111222,11144222,11111222' 
ADCP,ioos:station:wmo:42364:1,2010-02-02T13:30:00Z,29.0600,-88.0900,122.0,3.0,360.0,4.0,'11111222,11144222,11111222' 
ADCP,ioos:station:wmo:42364:1,2010-02-02T13:45:00Z,29.0600,-88.0900,122.0,5.0,20.0,6.0,'11111222,11111222,11111222' 
ADCP,ioos:station:wmo:42364:1,2010-02-02T14:00:00Z,29.0600,-88.0900,122.0,4.0,10.0,5.0,'11111222,11111222,11111222' 
ADCP,ioos:station:wmo:42364:1,2010-02-02T14:15:00Z,29.0600,-88.0900,122.0,5.0,10.0,5.0,'11111222,11111222,11111222' 
ADCP,ioos:station:wmo:42364:1,2010-02-02T14:30:00Z,29.0600,-88.0900,122.0,6.0,10.0,6.0,'11111222,11111222,11111222' 
ADCP,ioos:station:wmo:42364:1,2010-02-02T14:45:00Z,29.0600,-88.0900,122.0,5.0,10.0,6.0,'11111222,11111222,11111222' 
ADCP,ioos:station:wmo:42364:1,2010-02-02T15:00:00Z,29.0600,-88.0900,122.0,4.0,20.0,6.0,'11111222,11111222,11111222' 
ADCP,ioos:station:wmo:42364:1,2010-02-02T15:15:00Z,29.0600,-88.0900,122.0,4.0,360.0,4.0,'11111222,11144222,11111222' 
ADCP,ioos:station:wmo:42364:1,2010-02-02T15:30:00Z,29.0600,-88.0900,122.0,5.0,40.0,5.0,'11111222,11111222,11111222' 
ADCP,ioos:station:wmo:42364:1,2010-02-02T15:45:00Z,29.0600,-88.0900,122.0,6.0,10.0,6.0,'11111222,11111222,11111222' 
ADCP,ioos:station:wmo:42364:1,2010-02-02T16:00:00Z,29.0600,-88.0900,122.0,4.0,10.0,6.0,'11111222,11111222,11111222' 
ADCP,ioos:station:wmo:42364:1,2010-02-02T16:30:00Z,29.0600,-88.0900,122.0,4.0,10.0,4.0,'11111222,11111222,11111222' 
ADCP,ioos:station:wmo:42364:1,2010-02-02T16:45:00Z,29.0600,-88.0900,122.0,7.0,360.0,7.0,'11111222,11144222,11111222' 
ADCP,ioos:station:wmo:42364:1,2010-02-02T17:00:00Z,29.0600,-88.0900,122.0,6.0,10.0,6.0,'11111222,11111222,11111222' 
ADCP,ioos:station:wmo:42364:1,2010-02-02T17:15:00Z,29.0600,-88.0900,122.0,4.0,10.0,5.0,'11111222,11111222,11111222' 
ADCP,ioos:station:wmo:42364:1,2010-02-02T17:30:00Z,29.0600,-88.0900,122.0,3.0,20.0,5.0,'11111222,11111222,11111222' 
ADCP,ioos:station:wmo:42364:1,2010-02-02T17:45:00Z,29.0600,-88.0900,122.0,5.0,360.0,5.0,'11111222,11144222,11111222' 
ADCP,ioos:station:wmo:42364:1,2010-02-02T18:00:00Z,29.0600,-88.0900,122.0,4.0,20.0,5.0,'11111222,11111222,11111222' 
ADCP,ioos:station:wmo:42364:1,2010-02-02T18:15:00Z,29.0600,-88.0900,122.0,6.0,360.0,6.0,'11111222,11144222,11111222' 
ADCP,ioos:station:wmo:42364:1,2010-02-02T18:30:00Z,29.0600,-88.0900,122.0,2.0,340.0,2.0,'11111222,11111222,11111222' 
ADCP,ioos:station:wmo:42364:1,2010-02-02T18:45:00Z,29.0600,-88.0900,122.0,2.0,30.0,3.0,'11111222,11111222,11111222' 
ADCP,ioos:station:wmo:42364:1,2010-02-02T19:00:00Z,29.0600,-88.0900,122.0,2.0,320.0,4.0,'11111222,11111222,11111222' 
ADCP,ioos:station:wmo:42364:1,2010-02-02T19:15:00Z,29.0600,-88.0900,122.0,4.0,340.0,4.0,'11111222,11111222,11111222' 
ADCP,ioos:station:wmo:42364:1,2010-02-02T19:30:00Z,29.0600,-88.0900,122.0,3.0,360.0,4.0,'11111222,11144222,11111222' 
ADCP,ioos:station:wmo:42364:1,2010-02-02T19:45:00Z,29.0600,-88.0900,122.0,2.0,10.0,4.0,'11111222,11111222,11111222' 
ADCP,ioos:station:wmo:42364:1,2010-02-02T20:00:00Z,29.0600,-88.0900,122.0,4.0,40.0,4.0,'11111222,11111222,11111222' 
ADCP,ioos:station:wmo:42364:1,2010-02-02T20:15:00Z,29.0600,-88.0900,122.0,4.0,10.0,4.0,'11111222,11111222,11111222' 
ADCP,ioos:station:wmo:42364:1,2010-02-02T20:30:00Z,29.0600,-88.0900,122.0,1.0,60.0,2.0,'11111222,11111222,11111222' 
ADCP,ioos:station:wmo:42364:1,2010-02-02T20:45:00Z,29.0600,-88.0900,122.0,3.0,340.0,4.0,'11111222,11111222,11111222' 
ADCP,ioos:station:wmo:42364:1,2010-02-02T21:00:00Z,29.0600,-88.0900,122.0,4.0,330.0,4.0,'11111222,11111222,11111222' 
ADCP,ioos:station:wmo:42364:1,2010-02-02T21:15:00Z,29.0600,-88.0900,122.0,0.0,0.0,2.0,'11111222,11111222,11111222' 
ADCP,ioos:station:wmo:42364:1,2010-02-02T21:30:00Z,29.0600,-88.0900,122.0,2.0,230.0,2.0,'11111222,11111222,11111222' 
ADCP,ioos:station:wmo:42364:1,2010-02-02T21:45:00Z,29.0600,-88.0900,122.0,0.0,0.0,1.0,'11111222,11111222,11111222' 
ADCP,ioos:station:wmo:42364:1,2010-02-02T22:00:00Z,29.0600,-88.0900,122.0,0.0,0.0,1.0,'11111222,11111222,11111222' 
ADCP,ioos:station:wmo:42364:1,2010-02-02T22:15:00Z,29.0600,-88.0900,122.0,2.0,190.0,2.0,'11111222,11111222,11111222' 
ADCP,ioos:station:wmo:42364:1,2010-02-02T22:30:00Z,29.0600,-88.0900,122.0,1.0,140.0,1.0,'11111222,11111222,11111222' 
ADCP,ioos:station:wmo:42364:1,2010-02-02T22:45:00Z,29.0600,-88.0900,122.0,0.0,0.0,1.0,'11111222,11111222,11111222' 
ADCP,ioos:station:wmo:42364:1,2010-02-02T23:00:00Z,29.0600,-88.0900,122.0,2.0,160.0,2.0,'11111222,11111222,11111222' 
ADCP,ioos:station:wmo:42364:1,2010-02-02T23:15:00Z,29.0600,-88.0900,122.0,2.0,240.0,2.0,'11111222,11111222,11111222' 
ADCP,ioos:station:wmo:42364:1,2010-02-02T23:30:00Z,29.0600,-88.0900,122.0,0.0,0.0,2.0,'11111222,11111222,11111222' 
ADCP,ioos:station:wmo:42364:1,2010-02-02T23:45:00Z,29.0600,-88.0900,122.0,1.0,140.0,1.0,'11111222,11111222,11111222' 
ADCP,ioos:station:wmo:42364:1,2010-02-03T00:00:00Z,29.0600,-88.0900,122.0,0.0,0.0,1.0,'11111222,11111222,11111222' 
ADCP,ioos:station:wmo:42364:1,2010-02-03T00:15:00Z,29.0600,-88.0900,122.0,0.0,0.0,0.0,'11111222,11111222,11111222' 
ADCP,ioos:station:wmo:42364:1,2010-02-03T00:30:00Z,29.0600,-88.0900,122.0,0.0,0.0,1.0,'11111222,11111222,11111222' 
ADCP,ioos:station:wmo:42364:1,2010-02-03T00:45:00Z,29.0600,-88.0900,122.0,1.0,170.0,1.0,'11111222,11111222,11111222' 
ADCP,ioos:station:wmo:42364:1,2010-02-03T01:00:00Z,29.0600,-88.0900,122.0,2.0,150.0,2.0,'11111222,11111222,11111222' 
ADCP,ioos:station:wmo:42364:1,2010-02-03T01:15:00Z,29.0600,-88.0900,122.0,0.0,0.0,0.0,'11111222,11111222,11111222' 
ADCP,ioos:station:wmo:42364:1,2010-02-03T01:30:00Z,29.0600,-88.0900,122.0,2.0,140.0,2.0,'11111222,11111222,11111222' 
ADCP,ioos:station:wmo:42364:1,2010-02-03T01:45:00Z,29.0600,-88.0900,122.0,0.0,0.0,1.0,'11111222,11111222,11111222' 
ADCP,ioos:station:wmo:42364:1,2010-02-03T02:00:00Z,29.0600,-88.0900,122.0,0.0,0.0,1.0,'11111222,11111222,11111222' 
ADCP,ioos:station:wmo:42364:1,2010-02-03T02:15:00Z,29.0600,-88.0900,122.0,1.0,180.0,1.0,'11111222,11111222,11111222' 
ADCP,ioos:station:wmo:42364:1,2010-02-03T02:30:00Z,29.0600,-88.0900,122.0,0.0,0.0,0.0,'11111222,11111222,11111222' 
ADCP,ioos:station:wmo:42364:1,2010-02-03T02:45:00Z,29.0600,-88.0900,122.0,1.0,130.0,1.0,'11111222,11111222,11111222' 
ADCP,ioos:station:wmo:42364:1,2010-02-03T03:00:00Z,29.0600,-88.0900,122.0,1.0,150.0,1.0,'11111222,11111222,11111222' 
ADCP,ioos:station:wmo:42364:1,2010-02-03T03:15:00Z,29.0600,-88.0900,122.0,1.0,180.0,2.0,'11111222,11111222,11111222' 
ADCP,ioos:station:wmo:42364:1,2010-02-03T03:30:00Z,29.0600,-88.0900,122.0,2.0,210.0,2.0,'11111222,11111222,11111222' 
ADCP,ioos:station:wmo:42364:1,2010-02-03T03:45:00Z,29.0600,-88.0900,122.0,0.0,0.0,1.0,'11111222,11111222,11111222' 